When you browse on this site, cookies collect data to enhance your experience and personalize the content and advertising you see.
Visit our Privacy Policy to learn more. By continuing to use the site, you agree to this use of cookies and data.
  • In Österreich
  • Länderverzeichnis
  • Für 7 Tage
  • Wassertemperatur
  • Wetterkarte
  • News
  • Widgets
  • user-avatar
    Anmelden

    Stündliche Wetter Mozharovka

    Heute, 24 Januar, Freitag

    Zeit Temperatur Niederschläge Wind Luftdruck Luftfeuchtigkeit
    00:00 -5°C° 0.2 mm 4 m/S 729 mmHg 93%
    01:00 -5°C° 0.2 mm 4 m/S 730 mmHg 93%
    02:00 -6°C° 0 mm 5 m/S 730 mmHg 92%
    03:00 -7°C° 0 mm 5 m/S 730 mmHg 91%
    04:00 -7°C° 0 mm 5 m/S 730 mmHg 91%
    05:00 -7°C° 0 mm 5 m/S 731 mmHg 91%
    06:00 -8°C° 0 mm 5 m/S 731 mmHg 91%
    07:00 -10°C° 0 mm 5 m/S 731 mmHg 92%
    08:00 -10°C° 0 mm 5 m/S 732 mmHg 92%
    09:00 -11°C° 0 mm 5 m/S 732 mmHg 92%
    10:00 -11°C° 0 mm 4 m/S 733 mmHg 92%
    11:00 -11°C° 0 mm 4 m/S 733 mmHg 92%
    12:00 -11°C° 0 mm 4 m/S 734 mmHg 92%
    13:00 -11°C° 0 mm 4 m/S 734 mmHg 92%
    14:00 -11°C° 0 mm 4 m/S 734 mmHg 93%
    15:00 -12°C° 0 mm 4 m/S 735 mmHg 93%
    16:00 -12°C° 0 mm 4 m/S 735 mmHg 93%
    17:00 -15°C° 0 mm 4 m/S 736 mmHg 93%
    18:00 -16°C° 0 mm 4 m/S 736 mmHg 93%
    19:00 -18°C° 0 mm 5 m/S 736 mmHg 93%
    20:00 -19°C° 0 mm 5 m/S 737 mmHg 93%
    21:00 -19°C° 0 mm 4 m/S 738 mmHg 93%
    22:00 -20°C° 0 mm 4 m/S 738 mmHg 93%
    23:00 -20°C° 0 mm 4 m/S 738 mmHg 94%

    Morgen, 25 Januar, Samstag

    Zeit Temperatur Niederschläge Wind Luftdruck Luftfeuchtigkeit
    00:00 -20°C° 0 mm 4 m/S 739 mmHg 94%
    01:00 -22°C° 0 mm 4 m/S 739 mmHg 95%
    02:00 -22°C° 0 mm 4 m/S 739 mmHg 95%
    03:00 -22°C° 0 mm 4 m/S 739 mmHg 95%
    04:00 -23°C° 0 mm 4 m/S 740 mmHg 96%
    05:00 -23°C° 0 mm 4 m/S 740 mmHg 96%
    06:00 -23°C° 0 mm 4 m/S 740 mmHg 95%
    07:00 -23°C° 0 mm 4 m/S 739 mmHg 95%
    08:00 -20°C° 0 mm 4 m/S 739 mmHg 93%
    09:00 -20°C° 0 mm 5 m/S 739 mmHg 90%
    10:00 -19°C° 0 mm 5 m/S 739 mmHg 88%
    11:00 -17°C° 0 mm 6 m/S 739 mmHg 85%
    12:00 -15°C° 0 mm 7 m/S 738 mmHg 82%
    13:00 -15°C° 0 mm 8 m/S 737 mmHg 79%
    14:00 -13°C° 0.1 mm 8 m/S 737 mmHg 82%
    15:00 -14°C° 0.1 mm 9 m/S 736 mmHg 85%
    16:00 -14°C° 0.1 mm 9 m/S 736 mmHg 88%
    17:00 -12°C° 0.1 mm 9 m/S 735 mmHg 87%
    18:00 -12°C° 0.1 mm 8 m/S 735 mmHg 87%
    19:00 -12°C° 0.1 mm 8 m/S 734 mmHg 86%
    20:00 -11°C° 0.1 mm 8 m/S 734 mmHg 86%
    21:00 -11°C° 0.1 mm 8 m/S 734 mmHg 86%
    22:00 -10°C° 0.1 mm 8 m/S 734 mmHg 86%
    23:00 -9°C° 0 mm 7 m/S 733 mmHg 87%

    übermorgen, 26 Januar, Sonntag

    Zeit Temperatur Niederschläge Wind Luftdruck Luftfeuchtigkeit
    00:00 -9°C° 0 mm 7 m/S 733 mmHg 88%
    01:00 -9°C° 0 mm 7 m/S 733 mmHg 89%
    02:00 -9°C° 0 mm 7 m/S 732 mmHg 88%
    03:00 -9°C° 0 mm 7 m/S 732 mmHg 88%
    04:00 -8°C° 0 mm 7 m/S 731 mmHg 88%
    05:00 -8°C° 0 mm 8 m/S 731 mmHg 88%
    06:00 -7°C° 0 mm 8 m/S 730 mmHg 89%
    07:00 -8°C° 0 mm 9 m/S 729 mmHg 90%
    08:00 -6°C° 0.1 mm 9 m/S 728 mmHg 90%
    09:00 -7°C° 0.1 mm 10 m/S 728 mmHg 91%
    10:00 -5°C° 0.1 mm 10 m/S 727 mmHg 91%
    11:00 -5°C° 0.4 mm 10 m/S 726 mmHg 91%
    12:00 -5°C° 0.4 mm 10 m/S 725 mmHg 91%
    13:00 -4°C° 0.4 mm 10 m/S 725 mmHg 91%
    14:00 -5°C° 0.1 mm 10 m/S 725 mmHg 89%
    15:00 -8°C° 0.1 mm 10 m/S 725 mmHg 87%
    16:00 -9°C° 0.1 mm 9 m/S 725 mmHg 85%
    17:00 -9°C° 0 mm 9 m/S 725 mmHg 85%
    18:00 -10°C° 0 mm 9 m/S 726 mmHg 85%
    19:00 -11°C° 0 mm 9 m/S 726 mmHg 85%
    20:00 -10°C° 0.1 mm 9 m/S 726 mmHg 85%
    21:00 -10°C° 0.1 mm 10 m/S 727 mmHg 85%
    22:00 -9°C° 0.1 mm 10 m/S 727 mmHg 85%
    23:00 -11°C° 0 mm 9 m/S 728 mmHg 85%

    27 Januar, Montag

    Zeit Temperatur Niederschläge Wind Luftdruck Luftfeuchtigkeit
    00:00 -12°C° 0 mm 9 m/S 729 mmHg 85%
    01:00 -14°C° 0 mm 9 m/S 730 mmHg 85%
    02:00 -15°C° 0 mm 8 m/S 731 mmHg 87%
    03:00 -15°C° 0 mm 7 m/S 732 mmHg 88%
    04:00 -16°C° 0 mm 6 m/S 733 mmHg 89%
    05:00 -17°C° 0 mm 6 m/S 733 mmHg 88%
    06:00 -17°C° 0 mm 6 m/S 734 mmHg 88%
    07:00 -18°C° 0 mm 6 m/S 735 mmHg 88%
    08:00 -18°C° 0 mm 6 m/S 736 mmHg 88%
    09:00 -17°C° 0 mm 6 m/S 736 mmHg 88%
    10:00 -17°C° 0 mm 6 m/S 737 mmHg 87%
    11:00 -16°C° 0 mm 6 m/S 737 mmHg 86%
    12:00 -15°C° 0 mm 6 m/S 737 mmHg 85%
    13:00 -14°C° 0 mm 6 m/S 737 mmHg 84%
    14:00 -15°C° 0 mm 6 m/S 738 mmHg 86%
    15:00 -15°C° 0 mm 6 m/S 738 mmHg 87%
    16:00 -15°C° 0 mm 6 m/S 738 mmHg 88%
    17:00 -15°C° 0 mm 6 m/S 739 mmHg 89%
    18:00 -15°C° 0 mm 6 m/S 739 mmHg 89%
    19:00 -16°C° 0 mm 6 m/S 740 mmHg 89%
    20:00 -16°C° 0 mm 6 m/S 740 mmHg 89%
    21:00 -16°C° 0 mm 6 m/S 740 mmHg 89%
    22:00 -16°C° 0 mm 6 m/S 741 mmHg 89%
    23:00 -17°C° 0 mm 5 m/S 741 mmHg 90%

    28 Januar, Dienstag

    Zeit Temperatur Niederschläge Wind Luftdruck Luftfeuchtigkeit
    00:00 -18°C° 0 mm 5 m/S 742 mmHg 90%
    01:00 -18°C° 0 mm 4 m/S 742 mmHg 90%
    02:00 -19°C° 0 mm 4 m/S 743 mmHg 89%
    03:00 -19°C° 0 mm 3 m/S 743 mmHg 89%
    04:00 -19°C° 0 mm 3 m/S 744 mmHg 88%
    05:00 -19°C° 0 mm 2 m/S 744 mmHg 88%
    06:00 -19°C° 0 mm 2 m/S 744 mmHg 87%
    07:00 -17°C° 0 mm 1 m/S 745 mmHg 86%
    08:00 -18°C° 0 mm 2 m/S 745 mmHg 87%
    09:00 -16°C° 0 mm 2 m/S 745 mmHg 89%
    10:00 -15°C° 0 mm 3 m/S 746 mmHg 90%
    11:00 -13°C° 0.1 mm 3 m/S 745 mmHg 91%
    12:00 -11°C° 0.1 mm 4 m/S 745 mmHg 93%
    13:00 -9°C° 0.1 mm 4 m/S 745 mmHg 94%
    14:00 -8°C° 0.2 mm 4 m/S 745 mmHg 94%
    15:00 -6°C° 0.2 mm 3 m/S 745 mmHg 95%
    16:00 -6°C° 0.2 mm 3 m/S 744 mmHg 95%
    17:00 -5°C° 0.3 mm 3 m/S 744 mmHg 95%
    18:00 -5°C° 0.3 mm 4 m/S 745 mmHg 95%
    19:00 -4°C° 0.3 mm 4 m/S 745 mmHg 95%
    20:00 -4°C° 0.2 mm 4 m/S 745 mmHg 94%
    21:00 -4°C° 0.2 mm 4 m/S 745 mmHg 94%
    22:00 -4°C° 0.2 mm 4 m/S 745 mmHg 93%
    23:00 -5°C° 0 mm 5 m/S 745 mmHg 93%

    29 Januar, Mittwoch

    Zeit Temperatur Niederschläge Wind Luftdruck Luftfeuchtigkeit
    00:00 -5°C° 0 mm 5 m/S 745 mmHg 92%
    01:00 -5°C° 0 mm 5 m/S 745 mmHg 92%
    02:00 -4°C° 0.1 mm 4 m/S 746 mmHg 93%
    03:00 -5°C° 0.1 mm 4 m/S 746 mmHg 93%
    04:00 -6°C° 0.1 mm 3 m/S 746 mmHg 94%
    05:00 -6°C° 0.1 mm 3 m/S 746 mmHg 95%
    06:00 -6°C° 0.1 mm 3 m/S 747 mmHg 95%
    07:00 -6°C° 0.1 mm 2 m/S 747 mmHg 96%
    08:00 -6°C° 0.3 mm 2 m/S 748 mmHg 96%
    09:00 -5°C° 0.3 mm 2 m/S 748 mmHg 96%
    10:00 -6°C° 0.3 mm 3 m/S 749 mmHg 95%
    11:00 -7°C° 0.1 mm 3 m/S 749 mmHg 95%
    12:00 -7°C° 0.1 mm 3 m/S 749 mmHg 95%
    13:00 -8°C° 0.1 mm 3 m/S 750 mmHg 95%
    14:00 -9°C° 0 mm 3 m/S 750 mmHg 95%
    15:00 -9°C° 0 mm 3 m/S 750 mmHg 95%
    16:00 -9°C° 0 mm 2 m/S 750 mmHg 94%
    17:00 -12°C° 0 mm 3 m/S 751 mmHg 95%
    18:00 -12°C° 0 mm 3 m/S 751 mmHg 95%
    19:00 -13°C° 0 mm 3 m/S 752 mmHg 95%
    20:00 -13°C° 0.1 mm 3 m/S 752 mmHg 95%
    21:00 -13°C° 0.1 mm 3 m/S 752 mmHg 95%
    22:00 -13°C° 0.1 mm 3 m/S 752 mmHg 95%
    23:00 -13°C° 0.1 mm 3 m/S 752 mmHg 95%
    Mehr zeigen